Weather in Podorogie

Russia / Saint-Petersburg and Leningrad Oblast     60°54′46″N   34°09′24″E
temp.,
°C
wind,
m/s
gust,
m/s
humid.,
%
clouds,
%
prec.,
mm/h
press.,
hPa
HPBL,
m
24 october, sun
sun2400:00+1nne4109288 0.3 1008845
03:00+1n3885100 0.3 1010524
06:000nnw4108991 0.1 1012535
09:00−1nnw399054 0.1 1015466
12:00+1nnw36715 0.0 1018706
15:00+2nw36705 0.0 1020866
18:00−2wnw26845 0.0 1022121
21:00−2w248530 0.0 1023108
25 october, mon
mon2500:00−3wsw128693 0.0 102331
03:00−2ssw268496 0.0 1022214
06:00−1ssw3883100 0.0 1021393
09:00−1s41296100 1.3 1018497
12:000s41398100 3.4 1015475
15:00+3ssw51496100 5.5 10121007
18:00+6wsw51396100 1.8 10111092
21:00+6wsw51396100 3.3 1010856
26 october, tue
tue2600:00+6wsw41297100 1.6 1011748
03:00+6wsw51297100 2.4 1011749
06:00+5sw41197100 0.1 1011636
09:00+4sw41197100 0.3 1011541
12:00+4sw41195100 0.8 1011519
15:00+4sw41094100 0.8 1010579
18:00+4sw41194100 0.0 1010551
21:00+4sw41191100 0.0 1009537
27 october, wed
wed2700:00+4sw41193100 0.0 1008473
03:00+4sw41296100 0.4 1007526
06:00+5sw41297100 0.4 1006681
09:00+6sw41196100 0.4 1005766
12:00+7wsw4118691 0.1 1005714
15:00+7w51183100 0.3 10051055
18:00+5w51084100 0.2 1007851
21:00+5wnw4989100 0.3 1008776
28 october, thu
thu2800:00+4wnw3891100 0.1 1010682
03:00+4wnw2593100 0.1 1012721
06:00+3ne3595100 0.4 1014412
09:00+2ene3683100 0.6 1016563
12:00+1e3780100 0.0 1018532
15:00+1ene487397 0.0 1019533
18:000ene397771 0.0 1021464
21:00−2e39835 0.0 1023315